Preview of NWS' New Version of Forecast
This preview is not operational and should not be used for support decisions.

Regional Weather Roundup (RWR)

Issued by National Weather Service (NWS)

                            
000
ASUS44 KMEG 190710
RWRTN 
TENNESSEE HOURLY STATE WEATHER ROUNDUP
NATIONAL WEATHER SERVICE MEMPHIS TN
200 AM CDT FRI APR 19 2019

TNZ002-004-019-021-049-052-054-088>092-190800-
WEST TENNESSEE
  
CITY           SKY/WX    TMP DP  RH WIND       PRES   REMARKS
MEMPHIS INTL   CLOUDY    49  46  90 N14G23    29.67F                  
NWS MEMPHIS      N/A     48 N/A N/A MISG        N/A                   
JACKSON        CLOUDY    48  46  93 N14G23    29.61F                  
DYERSBURG      LGT RAIN  48  46  93 N14G21    29.66S FOG              
SOMERVILLE     CLOUDY    48  48 100 N14G22    29.62F FOG              
COVINGTON      CLOUDY    48  48 100 N10G22    29.66S FOG              
UNION CITY     CLOUDY    48  48 100 N16G23    29.62F FOG              
BOLIVAR        CLOUDY    48  46  93 NW10G21   29.60S FOG              
PARIS          CLOUDY    48  46  93 N12G18    29.59F FOG              
HUNTINGDON     CLOUDY    48  48 100 N8        29.58F                  
LEXINGTON      CLOUDY    52  52 100 N9G17     29.54F FOG              
SELMER         CLOUDY    52  50  93 N8G16     29.54F FOG              
SAVANNAH       CLOUDY    59  59 100 CALM      29.52F FOG              
$$

TNZ008-025-027-028-033-062-065-066-190800-
NORTH MIDDLE TENNESSEE
  
CITY           SKY/WX    TMP DP  RH WIND       PRES   REMARKS
NASHVILLE      CLOUDY    59  57  93 S8        29.54F                  
DICKSON        CLOUDY    57  55  94 VRB7G15   29.51F                  
PORTLAND       CLOUDY    59  59 100 S7        29.53F                  
CLARKSVILLE    LGT RAIN  51  48  89 NW13G24   29.57S FOG              
LEBANON        CLOUDY    59  59 100 SW5       29.52F FOG              
SMYRNA         LGT RAIN  59  58  96 SE3       29.54F                  
MURFREESBORO   CLOUDY    59  57  94 CALM      29.52F                  
COOKEVILLE     CLOUDY    61  59  94 S10       29.57R FOG              
LIVINGSTON     CLOUDY    61  59  94 SW8G16    29.55F                  
GALLATIN       CLOUDY    61  59  94 CALM      29.57S                  
CROSSVILLE     LGT RAIN  60  57  89 S12G22    29.60F                  
ROCKWOOD       CLOUDY    61  59  94 S12G20    29.62F FOG              
$$

TNZ061-075-076-078-094-096-097-190800-
SOUTH MIDDLE TENNESSEE
  
CITY           SKY/WX    TMP DP  RH WIND       PRES   REMARKS
LAWRENCEBURG   CLOUDY    57  55  94 CALM      29.53F                  
LEWISBURG      CLOUDY    57  57 100 CALM      29.53F                  
FAYETTEVILLE   CLOUDY    59  59 100 S9        29.54F                  
TULLAHOMA      CLOUDY    57  57 100 SE7       29.53F                  
WINCHESTER     CLOUDY    61  59  94 SE8       29.54F                  
MCMINNVILLE    CLOUDY    59  57  94 SE3       29.54F FOG              
COLUMBIA       CLOUDY    57  57 100 CALM      29.51F                  
SHELBYVILLE    CLOUDY    57  57 100 CALM      29.52F                  
$$

TNZ017-018-042-046-047-190800-
NORTHEAST TENNESSEE
  
CITY           SKY/WX    TMP DP  RH WIND       PRES   REMARKS
TRI CITIES     MOCLDY    70  53  54 VRB5G17   29.67F                  
ELIZABETHTON   FAIR      72  54  53 SW12G18   29.70F                  
GREENEVILLE    CLOUDY    70  55  60 S8G18     29.67F                  
$$

TNZ012-013-036-069-073-074-190800-
CENTRAL EAST TENNESSEE
  
CITY           SKY/WX    TMP DP  RH WIND       PRES   REMARKS
KNOXVILLE      LGT RAIN  63  58  83 S9        29.63F                  
OAK RIDGE      LGT RAIN  64  60  87 S6        29.65F                  
GATLINBURG     CLOUDY    66  57  72 SW10      29.64F                  
MORRISTOWN     CLOUDY    63  59  88 W10G16    29.65F                  
JACKSBORO      CLOUDY    63  61  94 S8        29.64F                  
$$

TNZ083-085-099-190800-
SOUTHEAST TENNESSEE
  
CITY           SKY/WX    TMP DP  RH WIND       PRES   REMARKS
CHATTANOOGA    HVY RAIN  63  60  90 SE3       29.61F                  
DAYTON         PTSUNNY   63  63 100 CALM      29.59F FOG              
$$

SKY/WX REPORTED AS FAIR MEANS FEW OR NO CLOUDS BELOW
12 THOUSAND FEET.